This is the latest recevied weather packets stored in our database for station/object GUNLAK-WX. If no packets are shown the sender has not sent any weather packets the latest 10 day(s).
| Time | Temp. | Humidity | Pressure | Rain* | Wind** | Luminosity | Snow |
|---|---|---|---|---|---|---|---|
| 1776939378 | 11.11° C | 87% | 987.1 hPa | 0 mm | - | - | - |
| 1776938501 | 11.11° C | 87% | 987.1 hPa | 0 mm | - | - | - |
| 1776937573 | 11.11° C | 89% | 986.7 hPa | 0 mm | - | - | - |
| 1776936688 | 11.11° C | 91% | 987.2 hPa | 0 mm | - | - | - |
| 1776935775 | 11.11° C | 91% | 987.2 hPa | 0 mm | - | - | - |
| 1776934899 | 11.11° C | 91% | 987.2 hPa | 0 mm | - | - | - |
| 1776933973 | 11.11° C | 92% | 987.1 hPa | 0 mm | - | - | - |
| 1776933087 | 11.11° C | 90% | 986.7 hPa | 0 mm | - | - | - |
| 1776932182 | 11.11° C | 90% | 986.7 hPa | 0 mm | - | - | - |
| 1776931299 | 11.11° C | 90% | 986.7 hPa | 0 mm | - | - | - |
| 1776930376 | 11.67° C | 87% | 986.3 hPa | 0 mm | - | - | - |
| 1776929488 | 11.67° C | 87% | 986.3 hPa | 0 mm | - | - | - |
| 1776928582 | 11.67° C | 87% | 986.3 hPa | 0 mm | - | - | - |
| 1776927699 | 11.67° C | 87% | 986.3 hPa | 0 mm | - | - | - |
| 1776926782 | 12.22° C | 81% | 987 hPa | 0 mm | - | - | - |
| 1776925891 | 12.22° C | 81% | 987 hPa | 0 mm | - | - | - |
| 1776924978 | 12.78° C | 81% | 987 hPa | 0 mm | - | - | - |
| 1776924106 | 12.78° C | 81% | 987 hPa | 0 mm | - | - | - |
| 1776923180 | 12.78° C | 84% | 987.5 hPa | 0 mm | - | - | - |
| 1776922290 | 13.33° C | 82% | 987.2 hPa | 0 mm | - | - | - |
| 1776921381 | 13.89° C | 82% | 987.3 hPa | 0 mm | - | - | - |
| 1776920499 | 13.89° C | 82% | 987.3 hPa | 0 mm | - | - | - |
| 1776919581 | 13.89° C | 83% | 987.6 hPa | 0 mm | - | - | - |
| 1776918689 | 13.89° C | 88% | 987 hPa | 0 mm | - | - | - |
| 1776917781 | 15° C | 88% | 987.1 hPa | 0 mm | - | - | - |
* Rain latest hour (hover to see other rain measurements)
** Current wind speed in m/s (hover to see current wind gust speed)